Hourly Data Report for October 14, 2016

All times are specified in Local Standard Time (LST). Add 1 hour to adjust for Daylight Saving Time where and when it is observed.

BAKER LAKE A
NUNAVUT

64°17'56.000" N
96°04'40.000" W
18.60 m
2300503
71926
YBK

Download Data

Hourly Data (October 2016)
Hourly Data Report for October 14, 2016
Temp Definition
°C
Dew Point Temp Definition
°C
Rel Hum Definition
%
Wind Dir Definition
10's deg

Wind Spd Definition
km/h
Visibility Definition
km
Stn Press Definition
kPa
Hmdx Definition


Wind Chill Definition


Weather Definition


TIME
00:00 Legend Double Dagger -8.8 -10.2 90 31 23 24.1 100.54   -17 Mostly Cloudy
01:00 Legend Double Dagger -8.5 -9.3 94 32 25 0.8 100.58   -17 Snow,Freezing Fog
02:00 Legend Double Dagger -8.1 -8.9 94 32 18 1.2 100.63   -15 Fog
03:00 Legend Double Dagger -8.2 -9.4 91 31 15 24.1 100.65   -15 Mainly Clear
04:00 Legend Double Dagger -7.7 -8.8 92 31 25 24.1 100.66   -16 LegendNANA
05:00 Legend Double Dagger -6.8 -8.0 91 32 20 24.1 100.69   -14 LegendNANA
06:00 Legend Double Dagger -8.0 -9.4 90 32 23 24.1 100.73   -16 Mainly Clear
07:00 Legend Double Dagger -7.8 -9.5 88 35 23 40.2 100.74   -16 LegendNANA
08:00 Legend Double Dagger -8.1 -9.9 87 33 20 32.2 100.79   -15 LegendNANA
09:00 Legend Double Dagger -6.7 -8.7 86 33 22 32.2 100.83   -14 Mostly Cloudy
10:00 Legend Double Dagger -5.1 -7.1 86 34 27 32.2 100.88   -13 LegendNANA
11:00 Legend Double Dagger -4.7 -6.9 85 33 29 32.2 100.91   -12 Snow
12:00 Legend Double Dagger -5.1 -7.6 83 33 24 32.2 100.97   -12 Snow
13:00 Legend Double Dagger -6.4 -8.8 83 33 28 32.2 101.00   -15 Snow
14:00 Legend Double Dagger -7.2 -9.9 81 33 26 32.2 101.04   -15 LegendNANA
15:00 Legend Double Dagger -7.6 -10.2 82 34 25 32.2 101.08   -16 Mainly Clear
16:00 Legend Double Dagger -8.6 -11.0 83 32 19 32.2 101.11   -16 LegendNANA
17:00 Legend Double Dagger -10.1 -12.0 86 32 17 32.2 101.19   -17 LegendNANA
18:00 Legend Double Dagger -11.2 -13.0 87 33 12 32.2 101.23   -17 Mainly Clear
19:00 Legend Double Dagger -9.4 -10.9 89 32 13 24.1 101.23   -15 Snow
20:00 Legend Double Dagger -11.3 -13.6 83 34 15 24.1 101.22   -18 LegendNANA
21:00 Legend Double Dagger -12.9 -14.6 87 31 10 24.1 101.24   -19 Mainly Clear
22:00 Legend Double Dagger -12.2 -13.9 87 29 8 24.1 101.25   -17 LegendNANA
23:00 Legend Double Dagger -13.4 -15.0 88 26 15 24.1 101.25   -21 LegendNANA

Notes on Data Quality.

Legend

  • E = Estimated
  • M = Missing
  • NA = Not Available
  • ‡ = Partner data that is not subject to review by the National Climate Archives
Date modified: